ZACUBE-1 (TSHEPISOSAT)

Last updated on Wed Sep 09 2026 00:03:15 GMT+0000 (Coordinated Universal Time)

1 39417U 13066B 26251.44645287 .00004845 00000+0 37048-3 0 9991 2 39417 97.8109 214.2009 0040536 334.7315 25.1925 15.01753129693222
UTC large
Height (km)
Speed (km/s)
/
Latitude / Longitude
Inclination (degrees)
Orbital Period (minutes)
Azimuth
Elevation
Range (km)
Doppler Factor

Next 0 passes for location: London (51.5072 / 0.1276)

No passes found over London.
ZACUBE-1 (TSHEPISOSAT)